Flag for Germany Past Weather in Neustadt an der Weinstraße, Rhineland-Palatinate, Germany — Yesterday and Last 2 Weeks

Now
53 °F

Low clouds.


Feels Like: 53 °F
Forecast: 50 / 70 °F
Wind: No wind

Location: Ramstein

Current Time: Jun 26, 2016 at 6:41:47 AM

Latest Report: Jun 26, 2016 at 5:58 AM


Visibility: N/A

Pressure: 30.08 "Hg

Humidity: 100%

Dew Point: 53 °F

Location of Neustadt an der WeinstraßeLocation

Past Weather in Neustadt an der Weinstraße — Graph

°F

Neustadt an der Weinstraße Temperature Yesterday

Maximum temperature yesterday: 73 °F (at 12:58 PM)
Minimum temperature yesterday: 55 °F (at 11:58 PM)
Average temperature yesterday: 65 °F

High & Low Weather Summary for the Past Weeks

 TemperatureHumidityPressure
High93 °F (Jun 23, 6:58 PM)100% (Jun 11, 5:58 AM)30.27 "Hg (Jun 11, 5:58 AM)
Low45 °F (Jun 20, 4:46 AM)42% (Jun 23, 3:58 PM)29.54 "Hg (Jun 15, 5:50 AM)
Average62 °F88%29.91 "Hg
* Reported Jun 11 5:58 AM — Jun 26 5:04 AM, Neustadt an der Weinstraße, Weather by CustomWeather, © 2016

Note: Actual official high and low records may vary slightly from our data, if they occured in-between our weather recording intervals... More about our weather records

Advertising

Neustadt an der Weinstraße Weather History for the Previous 24 Hours

Scroll right to see more
 ConditionsComfort  
Time TempWeatherWind HumidityBarometerVisibility
5:04 AM
Sun, Jun 26
50 °FPassing clouds.No wind100%30.07 "HgN/A
4:58 AM51 °FPartly cloudy.No wind99%30.07 "HgN/A
3:58 AM52 °FOvercast.No wind100%30.07 "HgN/A
2:58 AM50 °FPassing clouds.No wind99%30.07 "HgN/A
1:58 AM53 °FClear.No wind99%30.06 "HgN/A
12:58 AM54 °FPassing clouds.No wind99%30.07 "HgN/A
11:58 PM
Sat, Jun 25
55 °FClear.No wind99%30.10 "HgN/A
10:58 PM57 °FClear.3 mph94%30.06 "HgN/A
9:58 PM59 °FPartly sunny.5 mph90%30.06 "HgN/A
8:58 PM61 °FOvercast.No wind83%30.02 "HgN/A
7:58 PM61 °FLight rain. Partly sunny.9 mph88%30.03 "HgN/A
7:03 PM63 °FMostly cloudy.12 mph83%30.00 "HgN/A
5:58 PM65 °FMostly cloudy.7 mph79%29.98 "HgN/A
4:58 PM64 °FPartly sunny.9 mph83%29.97 "HgN/A
4:03 PM64 °FPartly sunny.12 mph88%29.96 "HgN/A
3:58 PM64 °FBroken clouds.8 mph88%29.95 "HgN/A
2:58 PM66 °FLight rain. Fog.15 mph100%29.92 "HgN/A
1:58 PM70 °FLight rain. Scattered clouds.12 mph90%29.89 "HgN/A
1:00 PM73 °FDrizzle. Partly sunny.2 mph89%29.91 "HgN/A
12:58 PM73 °FDrizzle. Broken clouds.1 mph89%29.89 "HgN/A
11:58 AM70 °FRain. Fog.1 mph100%29.90 "Hg5 mi
10:58 AM70 °FScattered clouds.No wind94%29.90 "HgN/A
9:58 AM67 °FOvercast.No wind100%29.92 "HgN/A
8:58 AM66 °FOvercast.No wind100%29.91 "HgN/A
8:04 AM64 °FLight rain. Broken clouds.No wind100%29.92 "HgN/A
7:58 AM65 °FLight rain. Partly sunny.No wind100%29.90 "HgN/A
7:02 AM66 °FLight rain. Partly sunny.1 mph100%29.92 "HgN/A
Weather by CustomWeather, © 2016

See weather overviewHow to use our weather pages